World > North America > United States > Utah

Central Valley, Utah Regional Weather

Lat: 38.70N, Lon: 112.1W
Wx Zone: UTZ014Web Search

Helpful Tip: You can add this page to Bookmarks by pressing the Ctrl key & d key at the same time. Mac users press command & d.

Feedback


°F Click to change Central Valley hourly weather to Imperial units.Click to change Central Valley hourly weather to Metric units. °C
Central Valley Weather Map
UTC Time: 4/10/2021, 12:06
Your Time:

Central Valley, UT Regional Weather

Expires:202104101200;;327461
ASUS45 KSLC 101110
RWRUT 

UTAH REGIONAL WEATHER ROUNDUP
NATIONAL WEATHER SERVICE SALT LAKE CITY UT
500 AM MDT SAT APR 10 2021


UTZ013>016-019>022-027-101200-

SOUTHERN UTAH
  
CITY           SKY/WX    TMP DP  RH WIND       PRES   REMARKS
BRYCE CANYON   PTCLDY    22   7  52 W9        30.10F WCI  12          
CEDAR CITY     CLEAR     33   9  36 CALM      30.02F                  
MILFORD        CLEAR     28   9  44 W8        30.00F WCI  20          
PANGUITCH      CLEAR     19   3  49 SE7       30.11S WCI  10          
ST GEORGE      SUNNY     50  12  21 SE5       29.95S                  
HANKSVILLE     CLEAR     32   1  27 MISG      30.03S                  
KANAB          CLEAR     34  12  40 E8        30.04S WCI  27          
BLANDING         N/A     36   3  25 CALM      30.10S                  

$$

REGIONAL REPORTS     COLORADO/ARIZONA
  
CITY           SKY/WX    TMP DP  RH WIND       PRES   REMARKS
CRAIG, CO      CLEAR     18  14  84 E3        30.07S                  
GRAND JUNCTION CLEAR     36   8  31 SE5       30.02S WCI  32          
RIFLE, CO      CLEAR     30  12  47 CALM      30.07R                  
MONTROSE, CO   CLEAR     30   9  41 S7        30.07S WCI  23          
CORTEZ, CO     CLEAR     24   9  52 NE8       30.06S WCI  15          
COLORADO CITY    N/A     32  19  59 E6        30.03S WCI  26          
PAGE, AZ       CLEAR     50   5  16 SE6       29.96F                  
GRAND CANYON   CLEAR     22   9  57 CALM      30.06F                  
KINGMAN, AZ    CLEAR     46   7  20 CALM      29.93F                  
FLAGSTAFF, AZ  CLEAR     28   8  43 CALM      30.06F                  

$$

REGIONAL REPORTS    NEVADA/IDAHO/WYOMING
  
CITY           SKY/WX    TMP DP  RH WIND       PRES   REMARKS
LAS VEGAS, NV  CLEAR     60  16  18 SW3       29.85F                  
ELY, NY        CLEAR     25   6  44 S8        30.04F WCI  16          
ELKO, NV       CLEAR     30  13  49 E5        30.02R WCI  25          
POCATELLO, ID  CLEAR     30  17  58 NW9       29.96F WCI  22          
BURLEY, ID     CLEAR     39  16  39 S9        29.93S WCI  33          
EVANSTON, WY   CLEAR     29   4  34 S8        30.04F WCI  21          
ROCK SPRINGS,  CLEAR     29   7  39 W12       30.02F WCI  19          
KEMMERER, WY   CLEAR     27  12  54 NW7       30.03F WCI  19          

$$
  

SKY/WX - Weather  TMP - Temperature  DP - Dew Point  RH - Relative Humidity
WIND - Wind Direction/Speed PRES - Barometric Pressure VSB - Visibility
WCI - Wind Chill Index E13G22 Wind - East Wind 13 mph/Gusts of 22 mph